Regional Weather Roundup
Issued by NWS

Home | Current Version | Previous Version | Text Only | Print | Product List | Glossary On
Versions: 1 2 3 4 5 6 7 8 9 10 11 12 13 14 15 16 17 18 19 20 21 22 23 24 25 26 27 28 29 30 31 32 33 34 35 36 37 38 39 40 41 42 43 44 45 46 47 48 49 50
000
ASUS43 KDMX 200907
RWRIA

WEATHER ROUNDUP FOR IOWA
NATIONAL WEATHER SERVICE DES MOINES IA
300 AM CST SAT DEC 20 2014

NOTE: "FAIR" INDICATES FEW OR NO CLOUDS BELOW 12,000 FEET WITH NO
SIGNIFICANT WEATHER AND/OR OBSTRUCTIONS TO VISIBILITY.

* - THESE STATIONS ARE NOT NWS STATIONS...THUS NOT UNDER NWS
QUALITY CONTROL.  THEY ALSO DO NOT REPORT WEATHER SUCH
AS PRECIPITATION OR FOG.

IAZ001>003-012>014-020>022-031>034-043>046-201000-
   NORTHWEST IOWA

CITY           SKY/WX    TMP DP  RH WIND       PRES   REMARKS
CARROLL *      CLOUDY    28  28 100 S8        30.14F WCI  20
CHEROKEE *     CLOUDY    30  30 100 S9        30.11S FOG     WCI  22
DENISON *      CLOUDY    28  30 100 S10       30.10S FOG     WCI  19
LE MARS *      CLOUDY    32  30  93 SE8       30.10R FOG     WCI  25
ORANGE CITY *  FOG       30  30 100 S8        30.09R VSB 1   WCI  23
SHELDON *      CLOUDY    30  30 100 S12       30.09R FOG     WCI  21
SIOUX CITY     CLOUDY    32  30  92 S9        30.10S FOG     WCI  24
SPENCER        CLOUDY    30  27  88 S13       30.11S FOG     WCI  20
STORM LAKE *   CLOUDY    28  28 100 S14       30.11S FOG     WCI  17
$$

IAZ055>058-069>071-079>083-090>094-201000-
   SOUTHWEST IOWA

CITY           SKY/WX    TMP DP  RH WIND       PRES   REMARKS
ATLANTIC *     CLOUDY    28  28 100 S8        30.15R FOG     WCI  20
AUDUBON *      CLOUDY    28  25  86 S7        30.14F HAZE    WCI  21
CLARINDA *     CLOUDY    30  30 100 S7        30.18S FOG     WCI  23
COUNCIL BLFS * CLOUDY    30  30 100 SE10      30.11S FOG     WCI  21
CRESTON *      CLOUDY    28  28 100 SW8       30.16S WCI  20
HARLAN  *      CLOUDY    30  30 100 S9        30.17S FOG     WCI  22
LAMONI         CLOUDY    30  30 100 S5        30.17S FOG     WCI  25
RED OAK *      CLOUDY    30  30 100 S8        30.15F FOG     WCI  23
SHENANDOAH *   CLOUDY    30  32 100 SE9       30.16S FOG     WCI  22
$$

IAZ047>049-059>061-072>074-084-201000-
   CENTRAL IOWA

CITY           SKY/WX    TMP DP  RH WIND       PRES   REMARKS
AMES           CLOUDY    30  29  96 SE6       30.17F FOG     WCI  24
ANKENY *       CLOUDY    32  32 100 SE5       30.18F FOG     WCI  27
CHARITON *     CLOUDY    32  32 100 S6        30.18S FOG     WCI  26
DES MOINES     LGT SNOW  33  30  88 S6        30.18S FOG     WCI  28
GRINNELL*      CLOUDY    30  28  93 SE5       30.20S FOG     WCI  25
KNOXVILLE *    CLOUDY    30  30 100 SE6       30.18S FOG     WCI  24
MARSHALLTOWN   CLOUDY    29  28  96 SE8       30.18F FOG     WCI  21
PELLA *        LGT SNOW  30  30 100 SE5       30.22R WCI  25
PERRY *        CLOUDY    30  30 100 S7        30.17S WCI  23
$$

IAZ004>006-015-016-023>025-035-036-201000-
   NORTH CENTRAL IOWA

CITY           SKY/WX    TMP DP  RH WIND       PRES   REMARKS
ALGONA *       CLOUDY    30  30 100 S13       30.15R WCI  20
CLARION *      CLOUDY    30  30 100 S10       30.16S FOG     WCI  21
ESTHERVILLE    CLOUDY    28  27  96 S13       30.12S WCI  17
FORT DODGE *   CLOUDY    28  25  86 SW8       30.16S WCI  20
MASON CITY     FOG       28  27  96 SE8       30.18S VSB 3/4 WCI  20
FOREST CITY *  FOG       30  30 100 SE8       30.15F VSB 1/2 WCI  23
IOWA FALLS *   CLOUDY    30  28  93 SE6       30.18S FOG     WCI  24
$$

IAZ007>011-017>019-026>030-037>042-050>054-066-201000-
   NORTHEAST IOWA

CITY           SKY/WX    TMP DP  RH WIND       PRES   REMARKS
CEDAR RAPIDS   CLOUDY    29  24  82 SE7       30.22R WCI  22
CHARLES CITY * CLOUDY    28  28 100 SE6       30.20S FOG     WCI  22
CLINTON *      CLOUDY    27  23  86 E5        30.28F WCI  21
DECORAH *      CLOUDY    27  25  93 VRB6      30.20S WCI  20
DUBUQUE        CLOUDY    26  23  88 SE7       30.24S WCI  18
MONTICELLO *   CLOUDY    28  27  93 SE6       30.24S WCI  22
OELWEIN *      CLOUDY    28  25  86 SE8       30.21S WCI  20
WATERLOO       CLOUDY    29  25  85 S9        30.21R WCI  20
$$

IAZ064-065-067-068-078-201000-
   EAST CENTRAL IOWA

CITY           SKY/WX    TMP DP  RH WIND       PRES   REMARKS
DAVENPORT      CLOUDY    29  23  78 SE6       30.26S WCI  23
IOWA CITY      CLOUDY    30  24  78 SE5       30.25S WCI  25
MT. PLEASANT * CLOUDY    30  27  86 SE5       30.24R WCI  25
MUSCATINE *    CLOUDY    32  25  74 SE5       30.26S WCI  27
QUAD CITIES    CLOUDY    29  24  82 E5        30.26S WCI  24
$$

IAZ062-063-075>077-085>089-095>099-201000-
   SOUTHEAST IOWA

CITY           SKY/WX    TMP DP  RH WIND       PRES   REMARKS
BURLINGTON     FLURRIES  31  25  78 SE3       30.23F
FAIRFIELD *    CLOUDY    30  27  86 SE5       30.23S WCI  25
FORT MADISON * CLOUDY    32  28  86 CALM      30.24F
KEOKUK *       CLOUDY    32  28  86 SE5       30.23F WCI  27
OSKALOOSA *    CLOUDY    30  28  93 SE7       30.21F FOG     WCI  23
CENTERVILLE *  CLOUDY    32  32 100 SE6       30.21S FOG     WCI  26
OTTUMWA        CLOUDY    30  27  88 S7        30.21S FOG     WCI  23
WASHINGTON *   CLOUDY    30  30 100 SE6       30.23S WCI  24
$$

ABBREVIATIONS USED IN REMARKS
   TC - TEMPERATURES IN CELSIUS
  WCI - WIND CHILL INDEX
   HX - HEAT INDEX
  VSB - VISIBILITY
$$




USA.gov is the U.S. government's official web portal to all federal, state and local government web resources and services.